Theta_e
296 296 296 297 298 298 299 299 300 300 301 302 302 304 310 312 311 313 312 309 312 313 312 312 312 313 313 313 313 313 313 312 311 311 311 311 311 312 311 312 312 313 313 312 312 312 312 311 311 311 311 312 312 311 311 311 310 310 309 310 313 313 311 311 310 310 310 311 312 312 313 313 312 313 314 314 314 313 313 314 315 315 314 314 314 313 315
296 296 296 297 298 298 298 299 299 300 301 301 302 307 313 311 309 312 311 309 311 312 311 311 311 312 313 312 313 312 311 312 312 311 312 311 312 312 312 313 313 312 312 312 312 312 312 311 311 311 311 311 311 311 311 310 309 310 312 313 313 312 311 311 309 310 311 311 311 311 312 312 312 313 313 313 313 313 315 314 314 315 315 314 314 313 315
296 296 296 296 297 298 298 299 299 300 301 301 302 307 312 310 308 311 310 309 310 310 311 312 312 312 313 313 313 312 311 311 311 311 312 312 312 312 313 313 313 312 312 311 311 311 311 311 311 310 310 311 311 311 310 309 309 313 313 313 312 311 311 311 311 311 312 311 310 310 311 312 312 313 313 313 313 314 315 314 314 315 315 314 313 313 314
296 296 296 296 296 297 298 298 299 300 301 301 304 308 312 311 309 310 310 310 310 310 311 312 312 311 312 313 313 312 311 311 311 311 311 311 311 311 312 312 311 311 311 311 311 311 310 310 310 310 310 310 310 310 310 310 311 312 311 310 311 311 311 311 311 311 312 311 311 310 311 312 312 312 313 313 313 314 314 314 314 314 314 313 313 314 314
296 296 295 296 296 297 297 298 298 300 300 301 306 310 311 309 310 311 311 310 310 310 311 311 311 311 311 312 312 312 311 311 310 310 310 310 311 311 311 311 310 310 311 311 311 311 310 310 310 309 310 310 310 310 310 310 310 310 310 310 310 310 310 311 312 312 311 311 311 311 311 311 311 311 312 312 313 313 313 314 314 314 313 312 313 314 314
296 296 295 295 296 296 297 297 298 299 300 301 306 311 309 308 310 310 309 310 311 310 311 311 311 311 311 311 312 312 311 311 311 310 310 310 309 310 310 310 309 310 310 311 311 311 311 311 311 310 310 310 310 309 309 310 309 309 310 311 311 310 310 311 311 311 311 311 311 310 310 310 310 310 311 312 312 312 313 313 313 314 313 313 313 314 314
296 295 295 295 295 295 296 297 297 298 299 301 304 308 308 308 309 308 308 310 311 310 310 310 310 310 310 310 311 312 311 311 311 310 310 310 310 309 309 309 309 309 309 310 310 311 311 311 311 311 311 311 311 310 309 310 310 309 310 311 311 310 310 311 311 310 310 310 310 310 310 310 310 310 311 311 311 312 313 313 313 313 313 313 313 314 315
295 295 295 295 295 295 295 296 296 297 299 301 303 304 305 307 307 307 308 310 309 309 309 309 309 310 310 309 309 310 310 310 310 309 309 310 311 310 309 309 309 309 308 309 310 311 312 312 312 312 312 311 311 310 310 310 310 310 309 311 311 310 310 311 310 310 309 309 309 309 310 310 310 310 310 311 311 311 312 312 312 312 312 312 314 315 314
295 295 295 294 294 294 295 295 295 295 298 301 302 301 302 305 305 305 308 309 307 307 308 308 308 308 309 309 309 309 309 309 309 308 307 309 310 309 309 310 310 308 308 309 310 310 311 311 311 311 311 310 310 310 310 309 309 310 309 310 310 310 310 310 309 309 309 308 309 309 309 309 309 310 310 310 311 311 311 312 311 312 312 312 313 313 312
295 295 295 295 294 294 294 294 294 295 296 299 302 300 299 302 304 304 308 309 305 306 308 307 307 307 308 308 308 308 308 308 308 307 306 307 307 307 309 310 309 309 309 309 308 308 308 308 308 308 308 309 309 308 309 309 308 309 309 309 309 309 309 309 308 309 309 308 308 309 309 309 309 310 311 311 310 311 311 311 311 311 312 311 311 311 311
295 295 295 295 294 293 293 293 294 294 294 296 300 299 297 299 304 305 307 307 306 306 307 306 307 308 308 307 306 307 307 307 308 307 307 307 307 306 307 309 308 308 308 307 306 306 306 306 306 307 307 307 308 308 308 308 308 308 308 308 309 309 308 308 308 308 308 308 309 309 309 308 308 310 310 310 310 310 310 310 311 311 311 311 311 311 311
295 295 295 295 295 294 293 293 293 293 293 294 298 298 294 296 303 306 305 305 305 306 306 306 306 307 307 306 306 307 306 306 307 307 307 307 307 306 306 308 308 307 305 305 305 305 306 306 306 306 306 307 308 308 307 307 307 308 308 307 308 308 308 308 307 307 308 307 308 308 307 308 309 310 310 309 309 309 309 309 309 310 310 311 310 310 310
296 295 295 295 295 294 294 293 293 293 292 292 296 296 292 295 301 304 304 305 305 304 305 305 305 305 306 306 306 306 306 305 305 306 306 307 307 306 306 305 306 305 303 304 305 306 306 306 306 306 306 306 307 307 307 306 306 307 308 307 307 307 306 306 306 306 307 306 306 307 308 308 309 309 309 308 308 307 308 308 308 308 309 310 309 309 309
296 296 295 295 294 294 294 294 293 293 292 292 296 296 292 292 297 301 304 305 304 304 304 305 305 305 305 305 305 305 305 305 305 305 305 305 305 305 304 303 302 303 303 304 305 305 305 306 306 306 306 306 307 307 306 306 307 307 307 307 307 306 306 306 306 306 306 306 306 307 308 308 308 308 309 309 308 308 308 307 308 308 309 309 309 308 309
297 296 295 295 295 294 294 294 293 293 292 292 296 297 293 291 294 298 302 304 302 303 304 304 304 305 305 305 304 304 305 305 304 304 304 304 304 303 302 302 301 302 302 303 305 305 305 305 305 306 306 306 306 306 306 306 306 306 306 306 306 306 305 305 306 306 306 306 306 306 307 307 307 308 309 308 308 308 308 307 307 308 308 308 307 307 307
297 297 296 295 294 294 294 294 293 293 293 293 296 298 295 292 292 295 301 304 302 302 303 301 302 303 304 304 303 303 304 303 303 304 304 303 303 302 301 301 301 301 302 303 304 304 304 305 305 305 306 306 305 306 306 305 305 305 305 305 305 305 305 305 305 305 305 305 305 305 306 306 307 308 308 307 307 307 307 306 306 306 307 306 306 306 307
297 296 295 295 294 294 294 294 293 294 293 293 297 298 296 293 292 294 300 303 302 301 301 299 301 303 303 303 303 302 303 303 302 303 303 303 303 302 301 301 301 301 301 302 304 303 303 304 304 304 305 305 304 305 305 305 305 305 304 304 304 305 305 305 305 305 305 305 305 305 305 306 307 306 306 306 306 306 306 305 304 305 305 305 305 306 306
296 296 295 295 294 294 294 294 293 294 294 293 296 299 296 292 293 295 299 302 301 301 300 298 300 302 301 301 302 301 301 302 302 302 302 302 302 301 300 300 302 302 301 301 303 303 303 303 304 304 304 304 304 304 304 304 304 304 304 304 304 304 304 304 304 304 304 304 304 304 305 306 306 305 305 305 305 304 304 304 303 304 305 304 304 304 304
296 296 295 295 294 293 294 294 294 294 294 293 296 299 296 292 292 295 299 302 301 300 300 298 299 300 299 299 301 300 300 301 302 302 302 302 301 300 300 300 301 302 302 302 303 303 303 303 303 303 303 304 304 304 303 304 303 303 303 304 303 304 304 303 304 303 303 303 303 303 304 305 304 304 304 304 304 303 303 303 302 303 304 304 303 303 303
296 296 295 295 294 293 293 294 294 294 294 293 296 300 298 293 292 294 297 301 302 300 299 298 298 299 299 300 301 301 301 301 301 301 301 301 300 300 301 301 301 301 302 301 302 302 302 302 303 303 303 303 303 302 302 303 302 302 302 303 303 303 303 302 303 303 303 303 303 303 303 303 303 303 303 303 303 302 302 302 302 302 302 302 302 302 302
296 296 296 295 294 293 293 294 294 294 294 293 295 299 298 295 293 293 295 298 301 301 299 297 297 298 298 298 299 299 300 300 300 301 301 300 300 300 301 301 300 301 301 301 300 301 301 301 302 302 302 302 302 302 301 301 301 302 302 302 302 302 302 301 302 302 302 302 302 303 302 302 302 302 302 302 302 301 301 301 301 301 301 301 301 302 302
296 296 296 296 295 293 293 293 294 294 294 293 295 298 299 296 294 293 295 297 298 298 298 297 297 297 297 298 298 298 298 298 299 300 300 300 300 300 300 300 301 300 300 300 300 300 300 300 300 300 300 301 301 301 301 300 300 301 301 301 300 301 301 301 301 301 301 301 301 302 302 301 301 301 301 301 300 300 300 300 300 300 300 300 301 301 301
296 296 296 296 296 295 293 293 294 294 294 293 295 297 298 297 294 295 298 299 298 298 297 297 298 298 298 298 297 297 297 298 298 299 299 299 300 300 299 300 300 299 299 300 300 300 300 300 300 300 299 300 300 300 300 300 299 300 300 300 300 301 301 300 300 300 300 300 301 301 301 300 300 300 300 300 299 299 299 299 299 299 299 299 299 300 299
296 296 296 296 296 296 294 292 293 294 294 294 295 297 298 296 294 296 299 298 297 298 298 297 298 297 297 297 297 297 297 297 298 298 297 298 300 300 299 299 299 299 299 299 298 299 299 299 299 298 299 299 300 299 299 299 299 299 299 299 299 300 300 299 299 299 299 299 299 300 300 299 299 299 299 299 298 298 298 298 298 298 298 299 298 298 299
296 296 296 296 296 296 294 292 293 294 294 294 295 297 298 296 295 297 299 297 296 298 298 298 297 296 296 297 296 296 297 296 297 297 297 298 299 299 299 299 298 299 299 298 298 298 299 298 298 298 298 299 299 298 298 298 299 299 299 298 299 299 299 298 298 298 298 298 299 299 299 299 298 298 298 298 298 298 298 298 298 298 298 298 298 298 298
295 296 296 296 296 296 294 292 293 294 294 294 295 297 297 296 296 296 298 298 297 297 298 298 297 296 297 297 296 296 296 296 296 297 297 298 298 298 298 299 298 298 298 298 298 298 298 298 298 298 298 299 298 298 298 298 298 298 298 298 299 299 298 298 298 298 297 298 298 298 298 298 298 298 298 298 298 298 298 298 298 298 298 298 297 298 298
296 295 296 295 295 295 293 292 293 294 294 294 296 297 297 296 296 296 296 297 298 298 298 298 297 296 297 296 296 296 296 296 296 297 297 297 298 298 298 298 298 298 298 298 298 298 298 298 298 297 298 299 299 298 298 298 298 298 297 298 298 298 297 298 297 297 297 297 298 298 297 297 298 298 298 298 298 298 298 298 298 298 298 298 298 298 298
296 295 295 295 295 294 293 292 293 295 294 294 296 298 297 296 297 296 296 296 297 298 298 298 298 297 297 296 296 296 296 295 296 296 296 297 297 297 297 298 297 297 298 298 298 298 298 298 298 298 298 298 298 298 298 298 297 297 297 298 298 298 297 297 297 296 297 297 297 297 297 298 298 298 298 298 298 299 298 298 298 298 298 299 299 298 298
295 295 295 295 295 294 293 293 294 295 294 295 297 298 298 297 297 296 295 295 296 298 298 297 297 297 297 296 296 296 295 295 295 295 296 296 296 296 296 297 297 297 298 298 297 297 298 297 297 297 298 297 296 296 296 296 297 297 298 298 297 297 297 297 297 297 297 297 298 298 298 299 298 298 298 298 298 298 298 298 298 298 298 299 298 298 298
295 295 295 295 295 294 293 293 294 294 295 296 298 298 298 299 297 295 293 294 295 297 298 297 297 297 296 296 296 295 295 295 295 295 295 295 295 296 296 295 296 297 296 297 297 297 297 297 297 297 298 297 296 296 296 296 296 297 298 298 297 297 297 297 298 298 298 298 298 298 298 298 298 298 298 298 298 297 297 297 297 298 298 298 298 298 298
296 295 295 295 295 294 293 293 294 295 296 297 298 298 298 299 297 294 293 293 294 296 298 297 297 297 296 296 296 295 295 295 295 295 295 295 295 296 295 295 295 296 296 296 297 296 297 297 297 297 298 297 296 296 296 296 296 296 297 297 297 297 298 298 298 298 298 298 298 298 297 298 298 297 297 297 297 297 297 297 297 297 297 297 297 298 298
296 295 295 295 295 294 294 294 294 295 296 296 296 296 296 295 294 293 293 294 295 297 297 297 296 296 296 297 296 295 294 295 296 296 296 296 295 295 295 295 295 296 296 295 296 296 296 296 296 296 297 297 296 295 295 295 296 296 297 297 297 298 298 298 298 298 298 298 298 297 297 297 297 297 297 297 297 297 297 297 297 297 297 297 298 298 298
296 295 295 295 295 294 294 294 294 295 296 296 296 296 294 293 293 293 293 295 296 297 296 296 296 295 296 296 296 295 295 296 297 296 296 296 295 295 296 296 296 295 295 295 295 296 296 296 296 296 296 296 296 295 295 296 296 296 297 298 298 298 298 298 298 298 297 297 297 297 297 297 297 296 296 296 297 297 297 297 297 297 297 298 298 298 298
295 295 295 295 294 294 294 294 295 296 297 296 297 297 294 292 293 293 293 295 297 297 295 295 296 296 296 296 296 296 295 296 297 296 296 296 295 295 296 296 295 296 296 295 295 295 296 296 296 296 296 296 296 295 295 296 296 297 298 298 298 297 298 298 297 297 296 296 297 297 296 296 296 296 296 297 297 296 296 296 296 296 297 297 297 297 296
295 295 295 295 294 294 295 296 296 297 297 297 297 296 293 292 293 293 293 295 297 297 296 295 296 296 296 296 297 296 295 296 297 296 296 296 295 295 296 295 295 296 296 295 295 295 296 297 296 296 296 296 296 295 296 296 297 298 298 298 298 297 297 297 297 297 297 297 297 297 296 296 296 297 297 297 296 295 295 295 294 295 295 295 295 295 295
295 295 295 295 295 296 298 298 297 297 297 298 297 295 293 293 293 293 293 295 296 297 297 296 296 296 296 296 296 296 296 296 297 296 296 296 295 295 295 295 295 296 295 295 295 296 296 296 295 295 296 296 295 296 296 297 298 298 298 298 298 297 297 297 296 296 297 297 296 296 296 296 297 297 296 296 295 294 294 294 294 294 294 294 294 294 293
295 295 295 296 297 298 298 298 297 297 296 294 294 293 293 294 294 294 295 295 295 296 297 297 297 297 296 296 297 296 296 296 296 296 296 296 295 295 295 295 295 295 295 295 296 296 296 296 295 295 295 296 295 296 297 297 297 298 298 298 297 297 297 297 297 296 296 296 296 296 296 296 296 296 295 295 294 294 293 294 293 293 294 293 293 293 292
295 296 297 298 298 298 297 298 297 296 293 292 293 295 296 296 296 297 297 296 296 296 296 296 297 297 296 297 297 296 296 296 296 296 296 296 295 295 295 295 295 294 294 295 296 295 295 295 295 295 296 296 296 297 297 297 297 297 297 297 297 297 297 297 297 296 296 296 296 296 296 295 295 295 295 294 293 293 293 293 293 293 293 293 292 292 292
296 297 298 298 298 298 298 297 295 293 293 293 295 297 297 296 296 297 296 296 296 297 297 296 297 297 296 297 297 296 296 296 296 296 296 295 295 295 294 294 295 294 293 294 295 295 294 294 295 295 295 296 297 297 297 297 297 297 296 296 297 296 297 297 296 296 296 296 295 295 295 294 294 294 294 294 293 293 293 293 292 292 292 292 292 292 292
297 297 297 298 298 297 297 296 294 293 295 296 297 297 296 296 297 297 296 296 297 297 296 297 297 297 297 297 297 296 296 296 296 295 295 295 295 295 294 294 295 294 293 294 295 295 293 294 294 295 295 295 297 297 296 296 297 297 296 296 296 296 296 296 296 296 295 295 295 295 294 294 294 294 293 293 293 292 292 292 292 292 292 292 292 292 292
296 296 296 296 296 296 295 295 295 295 296 296 296 295 296 296 296 296 296 296 297 297 297 296 297 297 297 296 296 296 297 296 295 295 295 295 295 295 294 295 295 293 292 294 295 295 294 293 294 294 295 296 297 297 296 295 296 297 296 296 296 296 296 296 296 295 295 295 295 295 294 294 294 293 293 293 292 292 292 292 292 292 292 291 291 291 291
295 295 295 295 295 296 296 296 296 296 296 295 295 295 295 296 296 296 296 296 297 297 297 297 297 297 297 296 296 296 296 296 295 295 295 295 295 294 294 294 294 293 293 294 295 294 293 293 293 294 295 296 296 296 295 295 296 297 297 296 296 296 296 296 295 295 295 295 295 294 294 294 294 294 293 293 293 292 292 292 292 292 291 291 291 291 291
295 295 295 295 296 296 296 296 296 296 295 294 294 294 295 295 296 296 296 297 296 296 296 297 296 296 296 296 296 296 296 295 295 295 295 295 294 294 294 294 293 293 294 295 294 293 293 293 293 294 295 296 295 295 295 295 296 296 296 296 296 296 296 295 295 295 295 294 294 294 294 294 294 294 294 293 293 292 292 291 291 291 290 291 291 291 291
296 296 295 296 296 295 295 295 296 295 295 295 295 295 295 296 296 297 297 297 297 297 297 296 296 296 296 296 296 296 296 296 295 295 295 295 294 294 293 293 293 294 295 294 294 294 293 294 294 294 295 295 295 294 294 295 295 296 296 296 296 296 295 295 295 295 294 294 294 294 294 294 294 294 293 293 293 292 292 291 290 290 290 290 290 290 290
296 295 296 296 295 295 294 295 295 295 295 295 295 296 297 297 297 297 297 297 297 297 296 296 296 296 296 296 295 295 295 295 295 294 295 295 294 294 294 294 294 294 294 293 294 294 293 294 295 295 295 295 294 293 293 295 296 296 296 296 296 296 295 295 295 295 294 294 294 294 294 294 294 293 292 292 292 291 291 291 290 290 290 290 290 290 290
295 295 295 295 295 295 295 295 295 296 296 297 297 297 298 298 298 298 297 297 296 296 296 296 296 296 296 296 295 295 295 295 295 295 295 294 293 293 294 294 294 293 293 293 294 293 293 294 295 295 295 294 293 293 293 295 295 295 295 295 295 295 295 295 295 295 294 294 294 294 294 294 294 293 292 291 291 291 291 290 290 289 289 289 289 290 290
295 295 295 295 295 295 295 296 296 297 298 298 298 298 298 298 297 297 297 296 296 296 296 296 295 296 296 296 295 295 295 295 295 294 295 294 294 294 294 294 293 293 293 293 293 293 293 295 295 295 294 294 293 293 294 295 295 295 296 296 295 295 295 295 295 295 294 294 295 295 294 294 293 293 292 291 291 291 291 290 290 289 289 288 288 289 290
295 295 295 295 296 297 297 297 298 298 298 298 298 298 297 297 297 297 297 296 296 296 296 296 296 296 295 295 295 295 295 295 294 295 294 294 294 294 293 293 293 293 293 293 293 294 294 295 295 294 294 294 293 293 294 294 294 295 296 296 295 295 295 295 295 295 294 295 295 295 294 294 293 292 292 291 291 291 291 290 290 289 289 288 288 287 288
294 294 295 295 296 297 298 297 298 298 298 298 298 297 297 297 297 297 296 296 296 295 295 295 295 295 295 295 295 295 295 295 294 294 294 294 293 293 293 292 293 293 293 294 294 295 295 295 294 294 293 294 293 293 294 294 295 295 296 296 295 295 295 295 295 295 295 295 295 294 294 293 293 292 292 291 291 291 291 290 290 290 289 288 288 287 286
293 294 295 295 296 297 298 297 298 298 298 298 298 297 297 297 297 297 296 296 296 295 295 295 295 295 295 295 294 294 294 294 294 294 294 293 293 293 293 293 293 293 294 294 295 295 295 294 294 294 293 294 294 294 294 294 294 295 296 296 295 295 295 295 295 295 295 295 295 294 294 294 293 292 292 291 291 291 290 290 290 289 289 288 288 288 287
293 294 295 295 296 297 297 297 297 298 298 298 298 297 297 296 296 296 296 295 295 295 295 295 295 295 294 294 293 293 294 294 294 293 294 294 294 294 293 294 294 294 295 295 295 295 294 294 294 294 293 293 293 294 294 294 295 295 296 296 296 295 295 295 296 296 295 295 295 295 294 293 293 292 291 291 291 291 290 289 289 289 289 288 288 288 287
294 294 295 295 296 296 296 297 297 297 297 297 297 297 296 296 296 296 296 295 295 295 295 295 295 294 294 294 294 294 294 294 294 293 294 294 294 294 294 294 295 295 295 295 294 294 294 294 294 293 293 293 293 294 294 294 295 296 296 296 296 295 295 295 295 295 295 295 295 294 293 293 292 291 291 291 291 291 291 289 288 288 288 288 287 287 287
Wind_Speed
26 26 26 27 26 25 24 24 23 23 21 17 12 7 6 10 5 2 5 9 10 10 9 8 8 8 8 9 7 3 4 7 6 4 7 8 7 6 6 6 7 7 6 6 6 6 5 8 7 5 5 1 8 8 6 2 2 4 6 4 3 2 4 7 8 8 11 15 12 9 7 8 11 11 9 9 10 10 9 9 8 7 8 8 8 8 3
27 26 27 28 27 26 25 23 21 20 19 18 14 9 8 9 7 3 3 7 11 10 8 8 8 8 10 10 7 5 6 6 5 5 6 5 4 5 5 5 5 5 5 5 7 6 5 7 6 5 5 3 10 7 5 1 6 3 3 3 3 1 5 6 7 8 7 10 11 10 9 7 7 9 11 13 12 12 10 10 8 8 11 11 9 9 3
27 27 27 28 28 27 26 24 21 18 15 13 12 10 9 9 8 7 5 6 11 12 8 7 8 7 9 9 8 8 6 4 5 6 3 2 3 4 4 4 4 5 5 5 8 8 5 5 5 4 5 3 8 5 4 3 6 2 7 6 3 3 6 5 6 7 7 7 7 5 4 5 5 8 12 14 11 10 9 8 8 9 12 12 11 9 3
27 27 27 28 29 28 27 25 21 17 15 12 9 8 9 8 4 6 6 6 11 13 10 10 10 7 7 7 8 10 8 5 4 6 4 3 5 6 5 4 5 7 6 6 8 9 8 7 6 5 6 4 6 5 4 4 1 7 6 4 5 5 6 8 10 10 9 10 10 9 8 7 8 10 12 11 8 9 9 8 9 10 10 11 11 11 8
27 28 27 28 29 29 28 27 22 19 17 12 8 6 8 7 3 2 2 3 7 8 7 8 8 6 6 5 5 9 10 5 5 6 5 3 4 6 5 6 7 7 7 7 8 9 9 9 8 7 8 4 5 6 4 4 4 5 1 5 5 5 7 10 13 14 14 15 16 17 15 14 13 13 14 13 12 13 11 10 11 12 10 11 11 12 12
28 28 28 29 29 29 29 28 25 22 17 12 8 6 6 5 3 4 5 3 3 2 2 4 5 4 4 4 3 7 10 8 4 4 4 3 4 5 4 6 8 8 8 7 7 9 9 8 8 8 8 6 3 5 6 7 7 5 6 6 4 6 8 10 13 15 16 17 17 17 17 16 16 16 17 17 17 17 16 14 16 14 12 12 13 13 13
28 28 28 29 29 30 29 28 28 24 16 14 12 9 8 8 4 5 6 5 2 4 5 6 6 4 2 2 3 6 9 8 5 3 3 4 4 3 4 6 7 6 6 6 6 7 8 7 8 6 6 7 6 5 6 7 8 7 8 6 3 4 7 9 12 14 15 16 17 17 17 17 18 19 19 19 19 20 19 18 19 18 17 17 18 17 16
29 28 28 28 29 30 29 29 29 25 17 17 18 15 11 9 7 7 9 6 2 5 5 5 6 4 2 2 2 4 6 6 4 2 3 3 2 3 6 7 5 4 5 6 3 4 5 3 3 3 3 5 5 6 7 5 6 7 8 6 4 3 5 7 9 11 13 15 16 17 18 18 19 20 21 20 20 20 20 19 18 18 18 18 17 15 13
29 28 28 28 28 29 29 29 29 27 21 19 18 16 14 10 7 8 9 5 3 5 4 3 5 3 1 1 1 2 3 3 2 1 4 3 1 3 5 4 3 5 7 4 2 6 7 4 3 3 4 5 5 5 5 5 5 7 7 6 4 4 6 8 9 10 11 12 15 17 18 19 20 21 21 21 19 18 17 17 16 15 15 16 15 12 10
28 28 28 28 27 28 29 28 28 27 25 22 18 18 18 12 8 9 9 4 2 4 4 2 3 1 3 4 2 2 2 2 1 1 2 2 3 4 5 4 4 6 4 1 4 6 6 6 5 5 6 7 8 8 7 6 6 7 7 6 6 6 7 8 8 9 11 13 15 15 14 15 15 13 14 18 19 19 19 19 18 18 15 14 13 12 11
27 27 27 27 27 26 27 27 27 26 25 24 18 17 19 16 11 12 10 5 2 4 4 2 2 3 4 4 2 2 3 2 2 4 2 2 3 6 5 4 5 2 3 5 5 5 5 6 6 7 8 9 11 10 10 10 9 9 8 6 7 9 9 8 8 9 11 13 13 12 12 13 9 3 6 10 13 15 17 16 16 16 13 11 12 12 12
26 26 26 26 26 25 25 26 26 24 23 22 17 15 18 16 12 12 10 6 3 4 3 4 5 4 3 3 3 2 3 3 3 6 4 1 2 6 6 5 4 3 6 6 6 5 6 7 8 9 10 12 12 13 13 13 12 13 12 10 9 9 9 8 8 8 10 11 11 11 12 11 6 2 3 5 6 8 11 12 14 13 11 12 13 12 12
25 25 25 25 25 25 24 24 24 23 21 20 17 16 17 16 12 11 11 7 3 5 4 3 4 4 4 3 3 2 2 3 3 4 4 3 2 3 5 6 5 6 7 7 7 7 7 9 9 10 11 12 13 15 16 16 15 16 15 13 10 9 9 8 8 9 9 9 9 11 11 8 5 5 5 3 4 7 9 11 12 10 8 9 11 11 10
23 23 23 24 24 24 23 23 23 22 20 18 17 16 17 16 12 12 11 8 3 5 5 1 3 5 5 4 4 3 3 2 2 2 2 3 4 4 4 6 6 6 7 7 6 7 6 6 7 8 9 9 10 11 13 14 15 14 13 12 10 10 9 8 8 9 8 9 10 10 11 11 8 5 1 2 4 6 6 8 10 7 4 6 8 8 8
22 23 23 23 23 23 23 23 22 21 19 18 15 15 16 15 12 10 10 10 4 5 7 6 6 7 5 3 5 5 3 2 1 1 3 1 3 3 2 5 6 5 6 6 6 6 5 5 7 6 6 7 7 8 8 8 8 8 9 10 9 9 10 8 8 8 7 9 10 8 10 10 4 2 5 5 5 5 4 7 8 5 2 5 7 7 9
22 22 23 22 22 22 22 22 22 20 19 17 15 14 17 16 12 9 8 10 6 4 8 9 8 8 7 3 2 3 3 3 2 2 2 2 1 2 3 5 5 4 5 6 6 5 5 6 6 6 6 7 8 6 6 6 5 5 5 8 11 10 9 8 8 8 7 8 8 8 9 5 3 5 4 5 6 7 5 7 6 2 5 8 9 8 9
22 22 22 22 21 21 21 21 21 19 18 17 15 14 17 18 13 9 8 9 5 5 7 10 9 8 6 2 2 3 4 4 3 3 2 0 1 3 4 5 3 2 4 6 5 4 5 6 6 6 6 6 7 6 5 5 6 5 6 6 9 9 7 7 9 9 9 9 8 8 7 2 4 3 3 5 6 6 6 7 2 4 6 8 9 9 10
21 21 21 21 20 20 20 20 20 18 17 17 15 12 16 19 15 10 8 8 5 5 7 10 9 7 6 5 4 5 5 5 3 3 3 1 3 5 6 7 3 2 2 4 4 4 6 5 5 6 5 2 3 5 4 2 4 5 6 5 5 6 6 6 8 8 9 10 9 8 5 1 5 4 5 6 5 4 5 5 3 5 7 9 9 11 12
21 20 20 20 19 19 19 18 18 17 16 17 14 11 16 21 16 10 7 7 5 6 7 8 8 8 7 5 2 2 3 4 4 4 4 1 5 6 5 4 3 1 2 4 4 3 5 5 4 5 5 1 1 3 6 3 3 5 6 5 5 5 5 6 7 8 8 8 8 9 5 3 8 7 6 7 6 5 4 6 8 9 11 12 12 13 13
20 20 20 20 19 18 18 17 17 16 15 16 16 11 15 20 19 12 8 7 6 4 7 7 8 8 8 6 5 5 5 5 7 6 4 3 6 6 5 2 1 3 2 2 3 2 3 4 3 2 4 3 0 1 5 5 6 6 6 6 6 4 5 6 7 7 7 8 9 9 5 3 8 9 6 3 4 6 10 12 13 13 14 14 15 15 14
20 19 19 20 19 18 16 16 16 14 13 15 16 12 12 17 18 13 9 8 8 4 5 5 6 7 8 7 7 7 6 6 7 7 6 6 6 5 2 1 3 4 3 3 3 1 2 4 2 1 4 4 2 2 4 5 5 4 4 6 6 4 5 6 5 3 4 6 6 4 2 4 8 9 7 6 9 12 15 16 16 17 17 17 17 17 16
19 19 19 19 19 18 15 14 14 13 11 12 14 12 12 16 16 11 9 10 8 6 6 5 4 6 6 6 6 6 5 6 6 6 7 7 5 4 4 4 5 5 5 5 4 1 1 3 3 2 4 4 3 4 5 5 4 2 3 4 4 2 3 6 5 3 5 7 8 8 11 14 15 13 12 14 15 15 16 18 19 20 20 19 19 19 19
19 19 19 19 19 18 15 12 12 12 10 10 12 12 12 15 15 11 8 6 4 5 5 3 2 4 5 6 6 6 5 5 6 6 7 7 4 4 5 5 5 4 5 6 5 4 3 3 3 3 4 3 3 5 5 5 5 3 2 4 4 4 5 7 6 6 9 12 14 15 17 17 16 15 16 17 18 18 19 19 20 21 21 20 20 21 21
19 20 20 19 19 18 16 12 10 10 9 10 12 13 12 14 14 12 8 4 2 1 3 3 3 4 4 5 5 5 4 5 5 6 6 6 4 3 3 5 6 4 3 5 6 5 5 4 3 3 3 3 3 4 4 4 4 3 4 6 5 3 5 5 7 8 8 9 10 12 15 15 17 19 19 19 20 20 19 19 20 20 20 20 21 22 24
20 20 20 19 18 18 16 11 9 9 8 8 12 12 11 12 14 13 9 6 5 5 1 5 7 5 2 3 4 5 5 5 5 5 5 5 4 4 4 5 5 4 3 4 5 5 5 3 3 3 4 2 3 3 3 2 3 3 3 5 5 3 5 4 8 9 9 10 12 16 19 19 19 19 18 18 18 19 19 19 20 21 21 23 24 25 26
19 20 20 19 18 17 15 10 7 8 7 7 10 11 10 12 14 13 11 8 7 6 2 4 5 3 2 3 4 5 5 5 4 4 4 4 4 5 6 6 5 5 4 5 5 5 5 4 3 4 3 1 2 4 4 3 4 5 5 6 8 7 6 7 8 8 9 11 13 15 16 15 16 17 17 18 20 21 22 22 22 23 25 26 27 28 28
18 19 20 19 17 16 14 9 7 7 6 5 8 8 8 11 13 12 11 11 7 3 1 3 4 3 3 4 4 4 5 5 4 4 4 4 4 5 5 6 6 6 6 6 5 5 6 5 3 3 4 3 3 5 6 5 5 6 7 8 9 8 7 7 7 8 8 9 11 13 12 11 15 19 20 21 22 23 24 25 25 26 26 26 26 26 26
17 18 19 19 17 15 12 8 6 7 6 4 6 5 5 9 12 10 9 9 7 4 4 4 4 3 2 3 4 4 4 5 5 5 4 4 4 4 5 5 6 6 6 5 5 4 5 5 3 3 4 4 4 5 6 6 6 6 6 5 5 6 6 7 7 8 10 13 17 18 15 15 19 22 23 22 23 23 24 25 25 25 25 25 25 25 25
15 17 18 18 16 14 11 7 7 8 7 6 6 3 3 4 10 10 9 8 5 4 5 2 3 2 2 3 4 4 4 5 5 5 5 5 5 5 6 5 6 6 5 5 6 6 5 5 5 4 2 0 2 4 5 5 6 6 5 5 4 5 7 9 10 12 14 17 19 19 18 20 22 23 23 22 20 21 22 23 24 25 25 26 26 27 27
14 16 17 17 15 13 10 8 7 8 9 9 6 6 5 1 5 9 10 7 3 2 5 3 1 2 1 2 4 5 5 5 6 5 5 6 5 5 6 6 6 6 6 6 6 6 6 6 6 5 1 1 3 5 4 4 6 5 4 5 6 8 10 11 12 14 16 18 18 18 19 21 21 21 21 19 19 20 23 24 25 26 26 26 27 27 27
14 15 16 16 14 12 10 7 7 8 11 11 9 7 3 2 5 8 8 5 4 2 5 5 1 1 2 1 3 5 6 6 6 5 4 4 5 5 5 6 6 5 5 7 7 6 6 6 5 4 3 4 5 5 4 5 7 5 6 10 11 12 13 14 13 14 16 17 18 19 19 18 18 19 19 19 20 22 23 24 25 26 26 26 26 26 26
13 14 15 14 13 12 9 8 7 7 8 9 8 4 2 4 6 6 5 5 5 3 6 5 2 1 1 1 0 4 7 5 4 5 3 2 5 6 4 4 5 5 5 7 7 6 5 4 6 7 4 4 4 5 5 6 6 6 10 13 13 12 12 13 14 14 14 14 16 17 17 17 18 19 20 21 22 23 23 24 25 26 26 27 26 24 23
13 14 14 13 12 11 8 7 7 8 8 9 8 6 6 7 5 3 3 5 4 3 4 4 2 2 1 2 1 3 8 5 3 4 3 2 4 6 5 3 4 4 3 4 5 4 3 4 6 7 3 3 3 6 6 5 5 8 11 13 12 12 13 13 13 13 12 13 14 15 16 18 18 18 19 21 22 21 20 21 22 23 23 21 19 18 17
12 12 12 12 11 10 8 6 6 8 9 9 6 6 9 8 4 1 2 4 3 3 3 3 4 3 1 1 3 1 6 6 4 5 4 3 4 6 5 4 4 4 4 3 5 6 5 5 6 6 4 3 5 6 4 4 7 10 11 11 11 12 13 13 13 13 14 15 15 15 16 17 17 17 18 18 18 18 17 17 19 19 19 17 16 16 16
11 11 11 11 11 10 9 9 7 6 7 5 4 8 11 8 3 1 1 2 3 4 1 2 5 4 2 2 1 4 5 5 5 5 5 4 3 4 5 5 5 3 2 3 6 7 4 3 4 5 4 3 4 4 4 6 10 12 12 11 11 12 13 13 14 15 16 17 18 17 15 15 16 16 15 14 15 16 16 16 16 16 16 16 16 16 16
10 10 10 11 11 10 9 8 6 5 5 5 7 10 9 5 2 1 3 3 3 4 4 4 4 3 4 4 2 5 5 5 5 6 5 4 3 3 5 6 5 1 1 4 7 6 2 0 2 4 4 4 3 3 4 8 11 12 11 10 10 11 12 13 15 17 19 19 18 15 13 14 15 14 12 12 13 14 13 14 14 14 15 16 16 16 16
8 9 10 11 11 9 7 5 4 5 7 8 8 7 6 4 2 1 1 2 4 4 5 6 4 3 4 5 3 4 6 6 6 6 5 5 5 4 4 5 3 2 3 6 5 3 3 2 3 5 4 2 2 2 5 8 9 9 9 9 10 11 12 14 16 18 19 19 17 13 13 14 15 13 12 11 11 11 12 12 13 14 15 16 16 16 16
8 10 11 10 9 8 6 4 6 9 9 7 5 4 4 3 3 2 2 4 4 3 4 6 3 2 4 5 3 3 4 5 6 5 3 4 4 3 3 3 2 2 4 4 1 1 4 5 4 5 4 2 1 2 5 7 7 6 7 9 10 11 12 13 14 16 17 18 16 14 13 13 13 12 10 9 9 10 11 11 11 12 14 14 15 16 16
10 10 9 7 7 7 7 9 10 8 6 4 3 3 3 3 3 3 3 4 4 3 3 3 3 3 5 6 3 3 3 5 6 4 3 4 3 3 3 3 1 1 5 4 1 1 4 5 4 4 3 2 1 2 6 7 6 6 6 8 9 10 11 12 13 14 14 13 12 11 10 9 9 9 8 8 9 10 10 11 12 12 12 13 14 16 18
8 8 7 6 7 8 8 9 7 4 2 2 3 3 3 4 3 2 2 3 4 3 1 2 3 3 4 5 4 2 2 4 5 4 4 4 2 2 4 4 2 2 5 3 2 1 4 5 4 4 3 1 1 4 6 7 6 5 6 8 9 10 11 12 12 11 10 8 6 6 6 6 6 8 8 8 9 10 11 11 11 11 12 12 14 16 18
8 8 7 7 8 9 7 5 3 2 3 4 3 3 3 4 2 2 3 3 3 2 1 3 5 3 1 3 6 6 3 2 4 6 6 4 2 2 5 4 2 3 5 3 1 2 4 4 5 4 2 0 1 4 7 7 6 5 6 8 9 10 11 12 10 8 5 4 4 6 7 7 8 8 8 7 8 9 9 9 9 10 11 12 13 14 15
10 10 9 9 9 8 6 4 3 3 3 3 3 2 3 3 2 3 4 3 2 2 1 2 5 5 4 5 8 7 3 2 4 5 4 3 2 3 4 3 2 3 4 3 3 4 4 4 5 4 0 1 2 5 8 8 7 6 6 8 9 10 11 10 7 5 4 5 6 7 8 8 8 8 7 7 7 8 9 9 9 10 10 10 11 12 13
11 11 9 8 6 5 5 4 3 3 2 2 2 2 2 3 3 3 3 2 1 2 2 2 4 6 5 4 5 5 4 3 4 5 4 3 3 3 4 3 3 4 4 4 5 5 4 5 5 3 0 0 2 6 8 8 7 6 6 7 7 9 10 7 4 3 4 6 6 6 6 6 6 6 6 6 7 9 10 10 10 11 12 11 11 13 14
9 8 8 7 5 4 3 2 3 3 2 2 3 2 3 3 2 2 2 0 1 3 4 5 6 7 5 4 6 7 5 3 2 3 5 5 3 3 3 3 4 5 5 4 5 5 4 5 6 4 2 1 3 6 8 8 7 6 6 6 6 7 7 4 3 4 4 5 5 5 5 5 5 6 6 6 7 8 9 9 10 12 12 11 12 14 15
7 6 6 5 3 3 2 2 3 3 3 3 3 3 4 4 4 3 2 2 3 5 7 7 8 8 8 7 6 5 4 3 3 3 4 4 3 4 4 4 4 5 5 5 5 5 5 5 4 2 1 0 3 7 8 7 6 6 6 5 5 6 5 3 2 3 4 4 4 4 4 4 5 5 6 6 7 7 8 8 8 9 9 10 10 12 14
6 5 4 4 3 4 3 2 2 3 3 3 4 5 6 5 6 6 5 4 6 8 8 8 8 9 9 7 5 5 6 6 5 4 4 4 4 4 5 5 5 4 4 5 6 5 5 5 3 0 1 0 4 7 7 6 6 6 6 5 4 4 3 1 2 3 3 3 3 2 3 3 4 5 5 5 6 6 7 7 8 8 9 9 9 10 11
6 5 4 4 4 4 4 5 5 5 6 6 7 8 8 7 8 8 7 7 7 8 8 8 8 8 8 8 7 7 7 6 5 5 5 4 4 4 4 4 4 4 5 6 6 5 5 5 2 1 2 1 3 6 7 7 6 6 5 4 4 3 1 1 3 4 4 3 2 0 1 2 3 3 3 4 5 5 6 6 7 7 8 9 9 9 9
5 4 4 3 3 3 4 5 7 8 9 9 9 9 8 8 9 8 7 7 7 7 7 8 7 7 6 6 6 6 6 6 5 6 5 4 3 3 3 4 5 5 5 6 6 5 6 4 1 3 2 1 2 6 8 7 6 6 5 4 4 3 2 2 4 6 5 4 2 1 0 1 1 2 2 3 4 5 5 5 6 7 7 8 9 10 10
5 5 5 5 5 6 7 8 9 9 10 10 9 9 8 9 10 9 8 7 7 7 7 7 6 5 5 5 5 6 6 5 4 4 4 4 4 4 4 5 6 6 5 5 5 6 7 6 2 0 1 2 3 6 8 8 7 6 5 4 4 4 3 4 6 7 7 6 4 3 2 1 1 1 1 2 3 4 4 5 6 6 7 8 9 10 11
6 7 7 8 7 9 10 10 8 8 8 9 9 8 8 9 9 8 7 6 7 7 7 7 6 5 5 5 4 4 5 5 4 4 5 6 5 5 6 7 7 6 5 6 6 7 8 8 6 5 5 4 5 7 8 7 6 6 5 4 4 5 5 5 6 8 8 7 6 5 4 3 2 0 1 2 2 3 4 5 5 6 7 8 9 10 10
5 6 8 10 11 11 11 10 8 8 9 9 9 8 8 9 10 9 6 6 7 7 7 7 6 5 4 4 4 4 4 4 4 6 6 6 5 6 7 8 7 7 7 8 9 9 9 8 6 5 6 7 7 8 8 7 6 6 5 5 5 6 6 5 6 8 10 9 8 7 6 4 2 1 1 1 1 2 3 4 5 6 6 7 8 9 10
6 7 9 11 13 14 14 14 13 13 12 12 11 10 9 9 10 9 7 7 8 8 8 8 6 5 4 4 4 4 4 4 5 6 7 6 6 7 8 9 9 10 11 11 10 10 10 8 7 6 7 8 9 9 8 7 7 6 5 6 7 7 7 7 7 9 10 10 9 8 7 5 4 3 3 1 1 1 1 2 4 5 6 6 8 9 10
Wind_Direction
14 11 8 7 5 2 360 358 356 353 351 355 358 339 271 247 240 142 180 196 189 204 232 233 231 239 244 252 256 255 261 252 242 223 216 224 236 234 243 262 264 262 265 267 260 248 251 258 255 251 252 123 96 112 123 134 228 243 268 278 87 97 261 259 262 263 265 269 263 242 239 262 269 264 262 264 264 265 271 277 284 285 273 268 269 266 261
15 13 10 8 8 6 3 1 1 357 351 353 353 338 298 277 266 238 207 196 197 217 239 235 233 234 236 241 238 232 250 256 256 250 226 219 237 244 247 254 254 256 261 269 267 259 253 252 248 260 267 113 107 119 115 179 239 241 336 342 84 175 250 248 259 265 255 250 249 240 231 240 258 260 255 254 260 272 280 281 282 272 265 264 265 267 262
16 15 12 10 10 9 6 4 4 2 357 353 346 328 305 288 263 235 214 191 208 229 252 261 260 250 239 240 239 232 222 229 267 278 263 255 280 272 267 270 262 258 256 256 260 262 266 255 235 251 268 132 119 131 131 216 253 38 35 350 316 270 266 263 262 263 260 253 253 258 259 258 272 276 262 253 259 278 282 277 269 260 263 265 263 268 265
18 17 14 12 11 10 9 7 7 10 9 1 352 331 302 290 268 227 211 195 216 234 254 263 264 266 257 244 240 239 222 187 217 254 251 242 259 265 272 273 259 257 258 255 257 253 246 246 241 245 252 194 135 133 159 210 263 64 55 312 283 267 262 263 263 263 269 276 285 305 314 296 285 286 278 263 256 266 270 267 263 265 273 269 261 270 273
19 18 16 14 12 12 12 10 11 15 14 7 358 334 303 295 319 335 291 221 221 229 237 249 251 254 257 250 240 245 242 211 177 215 235 233 244 252 257 258 253 252 254 252 257 257 244 238 242 251 258 233 130 125 193 206 122 94 167 239 250 262 255 254 259 263 268 275 282 288 288 281 278 280 278 272 263 258 257 259 266 275 278 267 265 276 279
19 19 18 16 14 15 14 14 16 14 11 11 357 336 337 335 348 10 346 304 261 256 280 296 287 262 246 247 246 250 249 237 202 210 233 220 229 243 242 249 250 246 250 251 249 255 253 245 244 245 253 251 184 163 209 196 151 168 228 217 220 264 260 255 261 262 263 266 270 273 274 273 273 271 270 270 269 264 261 261 266 271 268 268 280 287 282
20 19 19 17 16 17 16 17 20 14 13 28 25 17 18 5 6 21 343 309 332 352 333 315 301 290 294 269 247 258 256 243 230 253 260 220 216 251 250 246 252 250 254 261 255 258 262 252 248 253 260 264 256 231 225 198 173 205 235 217 206 268 266 263 269 270 269 269 270 270 271 271 270 267 265 265 264 263 262 261 263 265 265 269 279 283 280
20 19 20 18 17 18 17 19 22 18 22 41 38 34 28 4 357 354 321 298 351 342 313 295 278 256 258 266 247 265 268 249 228 262 302 264 231 280 268 249 256 274 264 260 276 341 339 300 278 304 284 264 263 261 263 247 208 217 233 225 202 232 267 274 276 276 274 275 279 276 271 271 272 269 265 263 262 261 261 262 263 264 266 270 276 279 280
18 18 19 19 17 17 18 21 23 21 29 41 34 27 24 360 341 338 317 304 358 324 291 278 279 254 210 276 295 282 273 259 233 38 10 342 314 328 310 290 280 269 254 247 23 22 3 355 12 339 281 273 284 280 287 298 267 242 243 242 221 226 265 276 275 272 269 270 274 274 273 273 270 265 263 262 261 261 261 261 263 264 269 274 276 274 272
17 17 18 19 19 18 18 21 24 23 30 40 29 17 19 7 347 342 320 300 9 323 281 247 274 313 36 16 8 330 288 268 266 344 34 34 20 2 342 319 284 261 252 343 28 9 343 335 332 306 280 275 278 275 276 287 284 274 268 260 248 247 264 274 271 269 272 272 272 277 280 274 267 268 272 267 262 263 263 260 261 265 267 269 267 267 274
16 17 17 18 19 20 18 19 24 23 29 39 29 8 12 10 350 338 319 295 25 327 299 344 10 5 12 350 328 316 291 266 295 304 267 127 27 0 349 309 278 270 43 20 356 336 317 308 297 282 273 267 264 264 264 261 257 261 267 266 260 261 267 273 272 270 272 276 281 284 273 260 260 302 318 287 275 273 272 270 271 273 275 280 281 286 293
16 16 16 17 18 20 19 18 23 24 26 37 33 9 12 14 350 333 323 315 357 338 331 52 37 5 357 331 311 325 316 306 333 335 334 76 18 356 1 338 308 10 30 355 328 313 281 267 259 253 252 254 254 253 253 253 251 251 254 256 258 263 264 265 267 267 271 277 276 266 258 257 266 305 321 311 305 292 287 284 280 278 285 294 293 293 296
15 16 16 17 16 19 20 18 21 23 21 30 34 16 15 21 4 345 336 327 3 7 356 76 72 18 5 348 329 321 314 316 324 331 344 353 322 338 10 3 350 358 356 336 319 302 272 257 253 250 246 244 246 248 247 249 249 247 247 249 252 259 262 262 263 261 264 268 256 250 263 276 262 236 235 257 276 276 278 276 274 278 290 296 295 295 296
12 14 14 17 17 17 19 18 20 22 19 25 32 18 15 24 16 360 348 334 13 32 352 336 78 24 359 343 327 292 252 277 299 307 20 359 322 318 347 352 352 346 334 321 295 273 263 262 260 255 252 246 244 246 247 248 247 243 244 247 247 253 256 254 259 259 258 262 257 258 272 272 253 237 274 335 302 297 295 284 283 287 290 299 309 310 306
9 12 13 16 17 18 19 18 20 24 20 24 32 19 14 24 19 4 349 327 328 46 27 15 14 346 330 341 336 307 266 255 285 204 133 59 324 316 337 337 339 333 318 300 274 256 250 259 258 251 250 247 243 245 243 242 240 237 246 255 250 249 254 253 255 256 254 261 263 261 265 266 254 91 66 42 2 349 335 292 282 278 288 315 316 308 301
8 10 13 15 16 18 20 18 21 27 23 25 35 21 12 21 22 13 354 325 319 33 33 18 356 314 303 322 331 317 324 332 316 270 190 139 340 337 2 342 328 321 299 273 258 259 256 248 251 254 252 250 253 254 247 244 229 194 214 255 255 245 246 250 253 254 251 255 261 258 258 272 51 72 63 46 23 1 326 279 273 23 32 358 338 321 315
9 10 13 15 15 16 19 19 22 29 27 27 37 24 9 15 22 24 3 333 338 54 34 7 343 305 301 337 354 349 341 321 303 291 276 141 335 329 351 338 298 267 289 273 245 241 248 240 243 252 251 259 270 260 243 253 252 199 184 228 250 245 241 243 246 249 249 249 255 259 259 281 64 44 352 10 18 357 308 267 272 45 22 353 340 327 324
10 11 12 14 14 14 18 20 23 29 29 30 39 27 8 14 23 29 7 329 335 61 41 11 3 353 354 1 355 360 347 313 298 293 277 292 356 345 348 338 300 191 213 263 248 239 247 242 246 256 255 288 305 266 245 270 282 249 227 232 246 243 243 248 249 250 250 250 255 259 259 53 61 27 331 327 324 302 274 272 336 355 324 319 321 313 311
12 12 11 12 13 13 16 19 23 30 27 27 38 27 6 14 25 33 22 350 355 58 48 18 21 23 6 346 318 1 4 333 328 313 281 15 30 347 318 316 315 281 238 256 257 254 253 243 245 263 261 248 34 278 269 275 282 269 263 261 257 250 245 247 248 252 253 254 260 262 259 35 29 357 323 307 283 265 291 324 331 319 311 314 312 304 304
13 13 11 12 12 12 14 15 20 31 28 26 40 32 1 9 23 34 40 11 354 60 70 30 22 30 25 24 20 15 13 2 353 343 336 23 13 324 272 182 53 327 303 285 276 267 268 262 248 265 270 262 77 306 272 259 259 266 267 261 261 267 263 250 242 251 258 254 257 260 253 29 7 344 331 320 299 309 327 327 315 307 308 307 300 298 299
13 12 11 12 12 11 13 12 16 29 30 28 41 38 3 6 19 33 57 35 351 7 62 36 23 36 40 44 39 24 22 21 8 359 352 350 346 328 308 56 25 354 350 338 312 287 292 285 264 246 272 265 234 247 262 261 259 251 255 270 272 263 262 265 262 276 274 252 249 270 317 329 322 316 307 300 303 308 312 309 303 302 301 298 295 294 293
10 11 9 10 11 9 10 10 11 20 26 25 36 38 12 6 13 26 53 48 23 29 53 47 58 64 52 49 48 35 28 28 19 8 354 338 338 7 22 25 18 5 351 333 313 282 276 283 279 279 275 266 257 262 266 271 263 193 174 244 266 260 280 286 285 292 288 271 273 298 306 300 299 299 296 295 297 298 299 298 295 293 292 292 292 291 289
6 7 5 6 7 5 6 9 8 14 17 14 28 35 13 2 12 24 31 32 42 74 73 62 100 95 68 41 31 23 19 18 12 8 0 345 348 29 41 34 19 359 348 343 336 334 322 306 316 312 289 282 287 276 264 259 262 254 225 242 264 301 306 291 281 287 289 279 277 285 292 294 297 297 296 296 296 294 293 291 289 289 290 291 292 290 289
3 1 0 0 0 0 2 4 5 11 10 9 27 34 11 360 13 21 9 345 324 82 95 75 36 38 40 21 8 8 8 355 341 344 351 351 355 17 31 18 2 344 353 359 341 322 306 300 310 302 291 314 318 276 265 266 265 281 288 264 265 343 356 304 278 280 284 280 281 288 293 294 295 294 295 295 293 291 291 290 290 292 292 290 289 290 289
2 359 358 357 356 357 359 360 6 12 9 19 40 38 11 2 16 19 8 353 327 306 336 71 51 34 25 21 14 11 8 354 338 329 323 321 318 303 308 334 337 322 330 340 324 306 294 285 282 267 265 316 338 282 266 283 282 290 297 274 273 19 32 317 279 275 280 286 291 293 292 291 291 292 293 295 295 297 299 298 297 295 292 289 287 286 286
1 359 357 356 354 356 358 0 11 14 7 26 50 41 10 3 14 20 16 359 326 297 306 59 58 48 40 41 31 17 13 13 6 349 324 306 297 292 296 304 298 286 291 296 293 294 287 270 270 279 275 343 350 293 277 293 290 280 278 282 287 297 306 297 290 286 283 285 291 295 295 294 295 296 298 304 308 308 307 304 299 293 289 289 288 286 284
358 357 358 358 355 358 4 8 17 20 16 35 51 41 20 12 13 18 17 0 334 299 43 65 78 80 59 47 31 10 9 11 5 2 355 335 314 304 302 301 294 288 288 284 276 276 277 269 265 278 280 282 281 271 270 282 287 274 269 276 281 280 284 293 295 288 283 290 306 314 311 300 297 301 305 309 309 306 302 300 297 295 294 293 292 289 286
355 355 357 358 357 4 13 20 28 24 16 38 48 34 24 25 16 8 10 9 353 334 351 36 96 108 59 27 13 1 4 3 355 351 345 334 325 317 306 295 293 295 295 291 279 265 267 275 268 255 264 274 275 270 271 271 266 264 274 281 276 282 303 313 304 292 290 298 307 312 307 295 295 301 305 307 306 304 302 302 302 303 303 301 299 296 294
351 353 356 358 1 9 18 27 33 21 8 27 39 335 285 26 22 2 358 12 6 320 313 323 134 125 41 20 8 356 354 352 345 339 331 323 316 310 301 290 287 291 290 286 283 275 269 272 275 270 262 71 291 282 281 275 265 266 278 284 282 307 325 316 297 288 290 294 300 304 301 297 300 304 307 307 307 305 304 305 306 306 305 303 301 298 296
347 351 354 356 1 10 19 22 23 21 23 27 4 296 271 59 30 358 355 13 38 320 301 292 156 110 87 29 0 349 344 340 335 330 326 318 308 306 304 297 288 282 275 268 268 276 283 277 270 269 222 149 265 275 279 279 272 271 304 332 329 326 321 308 296 295 299 302 305 306 301 300 302 303 304 306 308 309 309 308 307 307 305 304 302 298 296
341 347 351 354 359 5 13 14 10 21 30 18 347 317 321 7 345 341 353 28 64 359 297 293 322 130 172 194 340 337 336 333 325 316 307 302 307 311 306 295 286 275 274 272 262 265 281 280 269 263 228 205 241 270 283 277 269 282 350 352 336 320 313 311 308 307 306 308 311 308 303 302 305 306 307 310 312 312 310 307 305 304 303 301 299 297 296
333 341 347 350 354 0 6 6 7 24 30 12 356 354 337 315 320 337 358 25 35 343 299 303 330 286 240 173 350 325 329 323 301 299 304 313 318 313 294 280 287 286 288 289 278 269 276 279 276 278 257 189 211 264 275 270 274 306 332 330 323 320 322 322 319 315 315 318 318 313 310 311 314 312 311 312 312 311 310 308 307 307 305 299 296 297 299
328 336 343 345 350 358 360 0 21 42 36 14 11 10 339 331 346 6 15 30 25 325 308 328 313 268 353 80 140 316 327 319 291 308 332 17 333 310 282 266 282 269 248 266 274 267 258 252 262 269 252 183 226 268 273 274 295 316 320 319 324 332 331 326 321 320 322 322 318 312 310 311 311 309 307 309 314 317 320 320 320 320 319 313 310 313 316
329 334 342 343 345 350 353 4 36 41 21 10 5 335 326 339 1 359 14 31 354 296 309 326 295 283 29 134 170 31 351 333 323 333 341 358 341 314 294 283 271 234 209 241 276 273 252 241 254 262 246 226 244 259 272 295 315 323 322 323 331 333 327 325 327 327 326 324 319 312 308 307 308 309 311 317 325 330 332 333 333 335 336 336 336 336 334
334 341 344 340 342 355 9 22 31 15 352 351 322 303 314 333 344 291 65 39 304 288 341 325 295 313 344 278 190 56 20 327 317 332 334 333 326 314 313 303 272 226 195 255 271 267 251 243 275 276 254 234 242 253 285 315 325 331 330 330 335 333 327 327 328 327 328 327 321 316 317 319 318 318 322 330 337 340 340 342 344 345 344 343 343 342 340
342 347 345 347 360 13 15 10 2 335 313 292 281 293 311 328 313 317 65 50 310 315 345 319 296 335 346 315 345 19 347 314 323 334 329 319 297 294 310 301 279 271 305 269 260 263 259 240 293 276 251 236 250 277 325 333 333 336 335 332 333 332 326 324 322 323 326 326 323 326 333 330 326 331 341 346 346 345 347 350 352 355 355 353 351 350 348
343 351 357 2 3 357 344 331 314 301 298 291 287 299 323 341 318 302 43 335 296 301 312 300 303 9 348 320 337 344 321 323 339 335 329 331 318 298 295 294 297 336 292 257 246 270 284 258 262 271 263 244 258 319 350 344 339 341 337 329 327 326 323 322 322 321 324 326 329 337 341 335 338 353 2 358 355 360 3 3 3 5 7 4 360 358 358
353 2 3 354 337 327 327 313 287 286 298 311 318 323 323 313 284 249 247 271 267 250 264 279 299 355 319 300 329 0 335 325 325 322 337 347 324 297 291 298 316 336 288 264 220 326 289 266 252 260 258 214 189 354 4 356 348 346 335 323 322 321 319 323 326 326 327 328 332 340 344 343 351 5 11 10 13 15 14 14 16 17 15 12 10 11 14
6 359 347 333 328 332 327 307 295 297 316 332 325 306 283 264 263 263 257 253 249 243 249 266 284 322 315 308 331 30 356 314 305 312 350 353 334 328 326 317 327 302 289 280 123 117 280 272 257 255 251 211 212 4 14 6 352 346 337 328 325 322 321 324 325 324 323 323 329 343 354 354 1 16 26 31 34 35 33 31 29 24 19 17 20 26 29
358 342 326 321 323 317 306 301 308 331 349 309 284 274 261 250 253 282 297 266 248 235 225 277 286 296 308 305 304 324 344 321 311 318 329 327 325 323 311 310 336 317 288 272 133 153 283 285 277 267 254 231 326 11 19 9 351 348 343 335 331 327 326 327 327 325 324 328 343 11 25 30 37 46 48 45 45 46 41 34 29 26 24 21 25 33 37
342 333 318 306 302 301 303 311 321 308 277 269 259 248 254 255 253 265 273 270 265 239 220 292 301 293 220 275 294 301 324 340 314 301 298 304 329 309 293 295 316 294 277 279 11 301 280 280 282 279 266 166 1 15 16 3 355 359 349 338 334 331 330 332 335 339 351 16 41 54 61 63 63 62 57 49 44 38 27 17 13 16 18 18 22 30 36
327 325 313 301 297 299 306 307 278 248 254 266 255 241 248 255 255 251 246 253 319 333 278 280 309 312 299 292 297 299 308 331 309 287 277 300 333 305 287 291 293 271 271 293 311 291 274 273 277 279 118 81 15 15 12 359 354 356 347 339 338 336 335 339 348 6 45 68 76 78 78 74 65 57 49 40 28 17 11 7 3 4 9 12 13 15 21
335 334 328 320 305 285 275 262 232 216 229 247 236 235 252 245 240 256 255 237 256 284 276 289 307 304 299 299 296 285 275 284 290 276 267 277 293 285 278 278 269 268 281 294 286 275 270 269 273 278 336 71 353 7 6 355 350 351 345 343 344 340 339 348 19 61 80 88 89 84 76 66 53 43 39 32 21 13 10 9 8 10 14 16 14 12 13
332 318 309 306 293 262 248 230 199 198 228 237 213 226 266 268 251 267 291 286 234 269 296 312 306 298 298 307 301 288 272 250 243 263 272 275 270 266 268 268 267 280 292 287 271 268 271 270 276 294 317 337 4 5 356 348 350 350 342 340 346 345 347 12 74 93 96 101 96 80 66 56 45 36 31 29 25 19 13 10 9 11 14 16 17 16 14
322 301 290 288 267 224 215 212 198 207 230 230 222 248 283 300 301 304 332 1 313 293 297 305 303 295 293 293 288 278 268 248 227 244 268 277 270 263 266 272 280 288 287 275 266 271 273 269 274 285 258 300 2 356 346 342 345 339 329 331 345 352 2 37 106 118 113 111 99 77 63 53 39 28 26 30 30 26 23 20 15 12 13 15 15 15 14
308 295 290 286 261 230 225 221 208 220 235 236 248 274 291 303 311 315 318 310 294 290 294 300 298 292 289 284 266 246 253 263 265 259 257 259 263 268 276 281 279 273 269 266 265 266 267 272 284 48 145 108 356 345 333 331 335 330 324 330 343 353 6 56 154 154 141 132 116 75 49 40 31 24 23 28 26 25 28 28 22 20 23 24 21 18 16
291 279 273 276 262 236 224 224 235 258 277 280 281 287 294 299 299 299 297 292 288 290 294 296 292 287 283 279 270 257 251 252 258 262 259 256 258 264 270 271 263 253 255 260 257 255 264 275 301 69 134 156 348 335 323 323 329 325 315 314 319 326 334 193 190 184 175 170 161 88 18 22 31 29 25 28 29 30 31 29 24 24 27 28 26 25 23
284 270 261 261 254 233 228 242 258 269 276 277 277 280 286 288 286 286 287 285 281 283 287 290 291 290 278 263 258 264 262 253 251 254 252 251 260 262 255 250 249 248 252 254 251 257 271 281 38 91 126 217 317 321 313 314 320 313 298 290 289 284 261 224 211 200 193 194 203 217 296 357 14 12 15 28 34 33 31 30 29 28 30 31 32 36 38
266 259 254 257 264 265 262 266 274 278 277 274 272 271 272 274 276 280 286 283 274 274 281 280 279 286 284 266 255 262 263 255 252 253 242 233 238 244 244 249 253 254 254 253 252 262 273 278 290 57 233 258 295 300 298 303 312 309 291 274 264 254 240 227 217 205 199 205 217 222 223 234 257 314 6 30 37 35 33 34 33 30 31 33 34 36 41
254 250 247 248 260 272 270 264 265 271 273 272 268 262 260 265 270 275 281 275 264 263 265 257 248 258 278 276 268 266 259 247 243 246 243 238 240 245 248 251 254 256 261 265 265 268 271 272 277 285 288 284 283 283 285 293 304 299 280 256 241 234 229 223 213 205 202 207 213 216 220 230 236 236 50 49 49 42 35 34 34 34 32 33 34 35 36
245 242 245 248 257 270 276 274 273 276 279 280 281 277 271 268 267 268 269 264 256 254 256 251 243 246 255 250 246 257 268 255 240 240 244 245 245 246 247 249 254 263 273 277 277 275 274 274 277 283 283 279 278 279 281 288 294 291 275 251 233 226 223 222 216 209 207 209 212 214 217 222 222 199 172 136 59 38 25 27 37 42 37 32 35 40 40
242 252 268 269 267 268 271 271 272 274 274 274 275 276 271 265 263 262 257 249 246 249 255 255 246 236 238 246 252 261 265 254 244 246 251 253 253 253 256 259 264 270 274 277 278 276 276 278 281 279 273 274 278 280 279 282 285 280 263 248 237 225 217 221 226 218 208 206 209 211 211 211 208 198 194 214 271 357 15 24 44 55 52 44 44 47 46